This demonstration page uses our WeatherBlox Daily Observations layout. Learn more.

Left ArrowRight Arrow

39.01783, -85.05884

Hourly Observations for May 3, 2015

Temp ( °F °C ) Dew Point ( °F °C ) Humidity (%) Winds ( mph kmh ) Pressure ( in mb ) Visibility ( mi km ) Precip ( " mm )
12:52 am 00:52 Partly Cloudy 55 12.8 44 6.7 67 67 S 3 6 30.05 1018 10 16 0.00 0.00
1:52 am 01:52 Partly Cloudy 55 12.8 44 6.7 67 67 Calm 30.05 1018 10 16 0.00 0.00
2:52 am 02:52 Mostly Clear 52 11.1 46 7.8 80 80 Calm 30.05 1018 9 14 0.00 0.00
3:52 am 03:52 Clear 50 10 46 7.8 86 86 Calm 30.06 1018 8 13 0.00 0.00
4:52 am 04:52 Partly Cloudy 50 10 46 7.8 86 86 Calm 30.07 1018 9 14 0.00 0.00
5:52 am 05:52 Mostly Cloudy 48 8.9 45 7.2 89 89 SSW 3 6 30.08 1019 8 13 0.00 0.00
6:52 am 06:52 Mostly Cloudy 51 10.6 45 7.2 80 80 S 3 6 30.08 1019 9 14 0.00 0.00
7:52 am 07:52 Mostly Cloudy 53 11.7 49 9.4 86 86 Calm 30.10 1019 9 14 0.00 0.00
8:52 am 08:52 Mostly Cloudy 63 17.2 50 10 63 63 S 3 6 30.11 1020 10 16 0.00 0.00
9:52 am 09:52 Mostly Cloudy 66 18.9 51 10.6 59 59 S 5 7 30.11 1020 10 16 0.00 0.00
10:52 am 10:52 Partly Cloudy 71 21.7 49 9.4 46 46 SSW 8 13 30.11 1020 10 16 0.00 0.00
11:52 am 11:52 Partly Cloudy 72 22.2 50 10 46 46 S 7 11 30.12 1020 10 16 0.00 0.00
12:52 pm 12:52 Partly Cloudy 74 23.3 48 8.9 40 40 S 9 15 30.11 1020 10 16 0.00 0.00
1:52 pm 13:52 Partly Cloudy 75 23.9 50 10 41 41 S 8 13 30.10 1019 10 16 0.00 0.00
2:52 pm 14:52 Partly Cloudy 75 23.9 48 8.9 39 39 SSW 7 11 30.09 1019 10 16 0.00 0.00
3:52 pm 15:52 Partly Cloudy 75 23.9 51 10.6 43 43 S 14 22 30.07 1018 10 16 0.00 0.00
4:52 pm 16:52 Partly Cloudy 76 24.4 47 8.3 36 36 SW 10 17 30.06 1018 10 16 0.00 0.00
5:52 pm 17:52 Partly Cloudy 76 24.4 47 8.3 36 36 S 12 19 30.05 1018 10 16 0.00 0.00
6:52 pm 18:52 Mostly Sunny 74 23.3 47 8.3 38 38 S 8 13 30.05 1018 10 16 0.00 0.00
7:52 pm 19:52 Partly Cloudy 71 21.7 47 8.3 42 42 SSW 7 11 30.06 1018 10 16 0.00 0.00
8:52 pm 20:52 Partly Cloudy 68 20 46 7.8 45 45 S 5 7 30.06 1018 10 16 0.00 0.00
9:52 pm 21:52 Mostly Clear 65 18.3 47 8.3 52 52 S 5 7 30.08 1019 10 16 0.00 0.00
10:52 pm 22:52 Mostly Clear 64 17.8 46 7.8 52 52 S 6 9 30.08 1019 10 16 0.00 0.00
11:52 pm 23:52 Mostly Clear 62 16.7 46 7.8 56 56 S 5 7 30.07 1018 10 16 0.00 0.00

Powered by AerisWeather